SL-8 DEB *

Satellite information

Favourite Embed

Satellite Type and Status

DEBRISIN ORBIT

Key statistics

Satellite SL-8 DEB * at a glance.

Uptime

18223

Days in orbit

Revolutions

≈ 14.7

Per day

Orbit

LEO

Low Earth Orbit

Inclination

74.1

Latest

Satellite identification and parameters

Extended collection of information and parameters for SL-8 DEB *.

Object identification

Identified? True

Debris? True

Object name: SL-8 DEB *

International designator: 1975-112D

Object number (NORAD): 14801

Object ID (CCSDS): 14801

Country: COMMONWEALTH OF INDEPENDENT STATES (CIS)

Current information (Y/N): Y

RCS size: SMALL

Orbital parameters

Period: 98.232 minutes

Inclination: 74.0595 deg

SMA: 7052.278 km

Apoapsis: 678.217 km

Periapsis: 670.069 km

RAAN: 215.4728 deg

Eccentricy: 0.00057768

Argument of periapsis: 154.2205 deg

Mean anomaly: 317.0305 deg

Mean motion: 14.65914397 rev/day

Mean motion (dot): 0.0000572 rev/day2

B* drag term: 0.0010503322 1/REarth

Two-line elements (TLE)

Creation date: Oct. 19, 2025, 2:20 a.m.

Reference frame: TEME

Reference center: EARTH

Epoch: Oct. 18, 2025, 10:02 p.m. UTC

TLE line 0: 0 SL-8 DEB *

TLE line 1: 1 14801U 75112D 25291.91839594 .00005720 00000-0 10503-2 0 9992

TLE line 2: 2 14801 74.0595 215.4728 0005777 154.2205 317.0305 14.65914397452920

Live tracking on map

Real-time ground track for satellite SL-8 DEB *.

In-orbit conjunctions

A list of the most updated potential collisions computed for object SL-8 DEB *.

Target Orbit TCA Probability of collision Miss distance Type
CZ-2D R/B SSO 2024-08-07 09:29:09 0.0001644103 529.0 (m) ROCKET BODY

Associated space launch

Military communications satellite

SL-8 DEB * was lifted into orbit during the mission ‘Kosmos-3M | Strela-2M 11’, on board a Kosmos-3M space rocket.

The launch took place on Nov. 28, 1975, 12:10 a.m. from 132/1 (132L).

For more information about the launch, click the button.

Launch to space Kosmos-3M | Strela-2M 11
Kosmos-3M | Strela-2M 11

Agency: N/A

Status: Launch Successful

Launch date: Nov. 28, 1975, 12:10 a.m. UTC

Rocket: Kosmos-3M

Launch pad: 132/1 (132L)

Location: Plesetsk Cosmodrome, Russian Federation

...

Latest news about this satellite

There are no fresh news available about this satellite. Check back as we update our databases every day.


Newsletter sign-up

Weekly statistics, charts and insights to help you stay on top of the space industry.